Weather History for Stuart, FL

Change the Weather History Date:

Sunday, May 12, 2013

  Actual Average Record
Temperature  
Mean Temperature 80 °F -  
Max Temperature 89 °F 84 °F 94 °F (1974)
Min Temperature 71 °F 68 °F 55 °F (1950)
Cooling Degree Days 15    
Growing Degree Days 30 (Base 50)    
Moisture  
Dew Point 70 °F    
Average Humidity 84    
Maximum Humidity 94    
Minimum Humidity 40    
Precipitation  
Precipitation 0.18 in - - ()
Sea Level Pressure  
Sea Level Pressure 30.03 in    
Wind  
Wind Speed 5 mph (SW)    
Max Wind Speed 14 mph    
Max Gust Speed 16 mph    
Visibility 9 miles    
Events Rain , Thunderstorm    
Averages and records for this station are not official NWS values.
T = Trace of Precipitation, MM = Missing Value Source: NWS Daily Summary

Daily Weather History Graph

Daily Weather History Graph

Search for Another Location

Airport:

Trip Planner

Search our weather history database for the weather conditions in past years. The results will help you decide how hot, cold, wet, or windy it might be!

Date:

Astronomy

May. 12, 2013 Rise Set
Actual Time 6:34 AM EDT 8:00 PM EDT
Civil Twilight 6:09 AM EDT 8:25 PM EDT
Nautical Twilight 5:39 AM EDT 8:55 PM EDT
Astronomical Twilight 5:07 AM EDT 9:27 PM EDT
Moon 8:31 AM EDT (5/12) 10:23 PM EDT (5/12)
Length of Visible Light 14h 16m
Length of Day
13h 26m
Waxing Crescent, 6% of the Moon is Illuminated
May 12
Waxing Crescent
May 18
First Quarter
May 25
Full
May 31
Last Quarter
Jun 8
New

Hourly Weather History & Observations

Time (EDT) Temp. Heat Index Dew Point Humidity Pressure Visibility Wind Dir Wind Speed Gust Speed Precip Events Conditions
12:15 AM 71.6 °F - 69.8 °F 94% 30.07 in 10.0 mi SSE 3.5 mph - N/A   Clear
12:35 AM 71.6 °F - 69.8 °F 94% 30.07 in 10.0 mi South 4.6 mph - N/A   Scattered Clouds
12:55 AM 71.6 °F - 69.8 °F 94% 30.07 in 10.0 mi SE 4.6 mph - N/A   Scattered Clouds
1:15 AM 71.6 °F - 69.8 °F 94% 30.06 in 10.0 mi SSE 4.6 mph - N/A   Mostly Cloudy
1:35 AM 73.4 °F - 71.6 °F 94% 30.05 in 10.0 mi SSE 4.6 mph - N/A   Overcast
1:55 AM 73.4 °F - 71.6 °F 94% 30.05 in 10.0 mi SSE 3.5 mph - N/A   Overcast
2:15 AM 73.4 °F - 71.6 °F 94% 30.05 in 10.0 mi Calm Calm - N/A   Scattered Clouds
2:35 AM 73.4 °F - 71.6 °F 94% 30.04 in 10.0 mi Calm Calm - N/A   Clear
2:55 AM 71.6 °F - 69.8 °F 94% 30.04 in 10.0 mi Calm Calm - N/A   Clear
3:15 AM 71.6 °F - 69.8 °F 94% 30.04 in 10.0 mi Calm Calm - N/A   Clear
3:35 AM 71.6 °F - 69.8 °F 94% 30.02 in 10.0 mi SSW 3.5 mph - N/A   Clear
3:55 AM 71.6 °F - 69.8 °F 94% 30.02 in 10.0 mi SSW 3.5 mph - N/A   Clear
4:15 AM 71.6 °F - 69.8 °F 94% 30.01 in 10.0 mi Calm Calm - N/A   Clear
4:35 AM 71.6 °F - 69.8 °F 94% 30.00 in 10.0 mi SW 3.5 mph - N/A   Clear
4:55 AM 71.6 °F - 69.8 °F 94% 29.99 in 10.0 mi SSW 4.6 mph - N/A   Clear
5:35 AM 71.6 °F - 69.8 °F 94% 29.99 in 10.0 mi South 8.1 mph - N/A   Clear
5:55 AM 71.6 °F - 69.8 °F 94% 29.98 in 10.0 mi South 5.8 mph - N/A   Clear
6:15 AM 71.6 °F - 69.8 °F 94% 29.99 in 10.0 mi South 5.8 mph - N/A   Clear
6:47 AM 73.4 °F - 69.8 °F 88% 29.99 in 7.0 mi Calm Calm - N/A   Partly Cloudy
7:47 AM 75.2 °F - 71.6 °F 89% 30.02 in 7.0 mi Calm Calm - N/A   Partly Cloudy
8:47 AM 77.0 °F - 73.4 °F 89% 30.03 in 7.0 mi SSW 11.5 mph - N/A   Clear
9:47 AM 80.6 °F 86.2 °F 75.2 °F 84% 30.04 in 7.0 mi WSW 11.5 mph 16.1 mph N/A   Mostly Cloudy
10:47 AM 84.2 °F 90.9 °F 73.4 °F 70% 30.05 in 7.0 mi WSW 12.7 mph 16.1 mph N/A   Scattered Clouds
11:47 AM 86.0 °F 91.8 °F 71.6 °F 62% 30.05 in 7.0 mi SW 11.5 mph 16.1 mph N/A   Mostly Cloudy
12:47 PM 86.0 °F 91.8 °F 71.6 °F 62% 30.03 in 7.0 mi West 8.1 mph - N/A   Mostly Cloudy
1:47 PM 89.6 °F 92.2 °F 66.2 °F 46% 30.00 in 7.0 mi SW 12.7 mph - N/A   Mostly Cloudy
2:47 PM 89.6 °F 90.1 °F 62.6 °F 40% 29.98 in 7.0 mi West 6.9 mph - N/A Thunderstorm Mostly Cloudy
3:47 PM 87.8 °F 87.6 °F 60.8 °F 40% 29.97 in 7.0 mi West 11.5 mph - N/A Thunderstorm Mostly Cloudy
4:47 PM 82.4 °F 86.3 °F 69.8 °F 66% 29.99 in 7.0 mi NW 13.8 mph - N/A Thunderstorm Mostly Cloudy
5:47 PM 82.4 °F 84.6 °F 66.2 °F 58% 29.99 in 7.0 mi WNW 6.9 mph - N/A Thunderstorm Mostly Cloudy
6:47 PM 82.4 °F 85.4 °F 68.0 °F 62% 29.99 in 7.0 mi North - - N/A   Scattered Clouds
8:15 PM 77.0 °F - 69.8 °F 78% 30.02 in 2.0 mi SW 10.4 mph - 0.18 in Rain Heavy Rain
8:35 PM 73.4 °F - 69.8 °F 88% 30.02 in 10.0 mi SSW 5.8 mph - 0.18 in   Mostly Cloudy
8:55 PM 75.2 °F - 71.6 °F 89% 30.02 in 10.0 mi SSW 5.8 mph - 0.18 in   Clear
9:15 PM 75.2 °F - 71.6 °F 89% 30.03 in 10.0 mi SSW 3.5 mph - N/A   Clear
9:35 PM 75.2 °F - 71.6 °F 89% 30.04 in 10.0 mi SSW 5.8 mph - N/A   Clear
9:55 PM 75.2 °F - 71.6 °F 89% 30.05 in 10.0 mi Calm Calm - N/A   Scattered Clouds
10:15 PM 75.2 °F - 71.6 °F 89% 30.05 in 10.0 mi SW 4.6 mph - N/A   Scattered Clouds
10:35 PM 75.2 °F - 71.6 °F 89% 30.05 in 10.0 mi WSW 5.8 mph - N/A   Clear
10:55 PM 73.4 °F - 71.6 °F 94% 30.06 in 10.0 mi WSW 5.8 mph - N/A   Clear
11:15 PM 73.4 °F - 71.6 °F 94% 30.06 in 10.0 mi WSW 6.9 mph - N/A   Clear
11:35 PM 73.4 °F - 71.6 °F 94% 30.06 in 10.0 mi SW 5.8 mph - N/A   Clear
11:55 PM 73.4 °F - 71.6 °F 94% 30.05 in 10.0 mi SW 5.8 mph - N/A   Clear